Regional Weather Roundup
Issued by NWS

Home | Current Version | Previous Version | Text Only | Print | Product List | Glossary On
Versions: 1 2 3 4 5 6 7 8 9 10 11 12 13 14 15 16 17 18 19 20 21 22 23 24 25 26 27 28 29 30 31 32 33 34 35 36 37 38 39 40 41 42 43 44 45 46 47 48 49 50
913
ASUS44 KLIX 271010
RWRLA
LOUISIANA WEATHER ROUNDUP
NATIONAL WEATHER SERVICE NEW ORLEANS LA
400 AM CST TUE JAN 27 2015

NOTE: "FAIR" INDICATES FEW OR NO CLOUDS BELOW 12,000 FEET WITH NO
      SIGNIFICANT WEATHER AND/OR OBSTRUCTIONS TO VISIBILITY.
      SKY/WX - SKY CONDITION AND SIGNIFICANT WEATHER.
      TMP - AIR TEMPERATURE.    DP   - DEWPOINT TEMPERATURE.
      RH  - RELATIVE HUMIDITY.  PRES - PRESSURE.
      HX  - HEAT INDEX.         WCI  - WIND CHILL INDEX.

*  THESE STATIONS ARE NOT NWS OR FAA STATIONS AND ARE NOT UNDER
   NWS QUALITY CONTROL.

LAZ040-048-061>063-065-066-069-271100-
SOUTHEAST LOUISIANA

CITY           SKY/WX    TMP DP  RH WIND       PRES   REMARKS
N.O. AUDUBON   NOT AVBL
N.O. INTL ARPT CLEAR     47  40  76 W7        30.07F
N.O. LAKEFRONT CLEAR     53  42  66 SW10      30.06F
N.O. DOWNTOWN* FAIR      48  37  66 S5        30.07F
SLIDELL        CLEAR     50  41  71 CALM      30.05F
BATON ROUGE    CLEAR     44  39  82 W5        30.07S
BOOTHVILLE     PTCLDY    52  47  83 W7        30.09F
BELLE CHASSE   CLEAR     48  42  80 W5        30.07F
BOGALUSA*        N/A     37  33  87 SW5       30.06S WCI  33
GALLIANO*      MOSUNNY   52  47  84 MISG      30.08F
NEW ROADS*     FAIR      38  36  92 CALM      30.07S
GONZALES*      FAIR      45  42  91 CALM      30.07F
HAMMOND*       CLEAR     46  37  71 CALM      30.07F
HOUMA*         CLEAR     45  45 100 CALM      30.08F FOG
PORT FOURCHON* SUNNY     55  50  82 W8        30.12F

$$

LAZ041-044-053-054-271100-
SOUTHWEST LOUISIANA

CITY           SKY/WX    TMP DP  RH WIND       PRES   REMARKS
LAKE CHARLES   PTCLDY    50  44  80 W5        30.09F
LAFAYETTE      CLEAR     46  42  86 SW5       30.08F
PATTERSON      CLEAR     48  43  81 W6        30.10F
SALT POINT       N/A     51  49  92 W5        30.09F
NEW IBERIA     CLEAR     47  43  86 W5        30.09F
CHENAULT AIRPK NOT AVBL

$$

LAZ027-028-271100-
CENTRAL LOUISIANA

CITY           SKY/WX    TMP DP  RH WIND       PRES   REMARKS
FORT POLK      CLEAR     46  38  73 W2        30.06F
ALEXANDRIA INT CLEAR     41  37  86 CALM      30.05F
ALEXANDRIA     CLEAR     47  37  68 W8        30.05F

$$

LAZ001-002-271100-
NORTHWEST LOUISIANA

CITY           SKY/WX    TMP DP  RH WIND       PRES   REMARKS
SHREVEPORT     CLEAR     42  37  82 CALM      30.04F
BARKSDALE AFB  CLEAR     38  35  87 CALM      30.05F
DTN SHREVEPORT CLEAR     40  35  83 CALM      30.05F

$$

LAZ014-016-271100-
NORTHEAST LOUISIANA

CITY           SKY/WX    TMP DP  RH WIND       PRES   REMARKS
MONROE         CLEAR     47  36  65 CALM      30.05R
TALLULAH       CLEAR     36  33  89 CALM      30.04S

$$




USA.gov is the U.S. government's official web portal to all federal, state and local government web resources and services.